#timestamp,LO_Frequency,Hit,StdDev 
1644649215.6,286046998.6,N
1644649235.4,286046999.9,N
1644649255.3,286046998.6,N
1644649275.1,286047001.1,N
1644649295.8,286046998.5,N
1644649315.7,286046999.9,N
1644649335.5,286047000.1,N
1644649355.4,286047000.6,N
1644649375.2,286046998.8,N
1644649395.0,286047000.7,N
1644649395.9,286047000.7,N
1644649415.8,286047000.5,N
1644649435.6,286047001.0,N
1644649455.5,286047000.7,N
1644649475.3,286047000.1,N
1644649495.1,286047002.2,N
1644649515.9,286047000.1,N
1644649535.7,286047000.3,N
1644649555.5,286047001.2,N
1644649575.4,286047001.0,N
1644649595.2,286046998.3,N
1644649615.1,286047000.8,N
1644649616.0,286047000.8,N
1644649635.8,286046999.4,N
1644649655.6,286047001.2,N
1644649675.5,286047000.8,N
1644649695.3,286046998.1,N
1644649715.1,286046998.8,N
1644649735.9,286047000.8,N
1644649755.7,286047000.3,N
1644649775.6,286047000.1,N
1644649795.4,286046999.8,N
1644649815.2,286047000.7,N
1644649835.1,286047002.6,N
1644649836.0,286047002.6,N
1644649855.8,286047000.1,N
1644649875.7,286047002.3,N
1644649925.5,286046998.3,E
1644649935.4,286047000.4,N
1644649955.3,286047002.2,P
1644649975.1,286047002.8,P
1644649995.9,286047001.4,N
1644650015.7,286047002.3,N
1644650035.5,286047002.4,N
1644650055.4,286047002.1,N
1644650075.2,286047001.7,N
1644650095.1,286047001.9,N
1644650096.0,286047001.9,N
1644650115.8,286047001.8,N
1644650135.6,286047004.4,Y
1644650155.5,286046999.9,P
1644650175.3,286047001.1,N
1644650195.2,286046998.2,N
1644650215.9,286046998.1,N
1644650235.7,286046998.8,N
1644650255.6,286046998.4,N
1644650275.4,286047000.9,N
1644650295.2,286046999.8,N
1644650315.1,286047001.4,N
1644650316.0,286047001.4,N
1644650335.8,286047001.4,N
1644650355.7,286047002.8,N
1644650375.5,286047000.0,N
1644650395.3,286047002.8,N
1644650415.2,286047000.5,N
1644650435.0,286047002.8,N
1644650435.9,286047002.8,N
1644650455.8,286047000.1,N
1644650475.6,286047000.5,N
1644650495.4,286047000.2,N
1644650515.3,286046999.9,N
1644650535.1,286047000.6,N
1644650555.8,286047002.3,N
1644650575.7,286047002.5,N
1644650595.5,286047000.0,N
1644650615.3,286047000.0,N
1644650635.2,286047000.9,N
1644650655.0,286047000.0,N
1644650655.9,286047000.0,N
1644650675.8,286047000.4,N
1644650695.6,286046998.2,N
1644650715.4,286046999.1,N
1644650735.3,286046998.7,N
1644650755.1,286046998.5,N
1644650775.9,286046998.4,N
1644650795.7,286046999.4,N
1644650815.5,286046996.7,N
1644650835.4,286046997.1,N
1644650855.2,286046997.9,N
1644650875.0,286046996.8,N
1644650876.0,286046996.8,N
1644650895.8,286046997.5,N
1644650915.6,286046998.0,N
1644650935.5,286046997.2,N
1644650955.3,286046995.1,N
1644650975.1,286046999.2,N
1644650995.9,286046999.2,N
1644651015.7,286046999.6,N
1644651035.5,286046999.3,N
1644651055.4,286046999.4,N
1644651075.2,286046999.0,N
1644651095.1,286046999.6,N
1644651096.0,286046999.6,N
1644651115.8,286046997.3,N
1644651135.6,286046997.9,N
1644651155.5,286046996.8,N
1644651175.3,286046996.8,N
1644651195.2,286046997.2,N
1644651215.9,286046996.8,N
1644651235.7,286046999.4,N
1644651255.6,286046997.0,N
1644651275.4,286046996.6,N
1644651295.3,286046995.7,Y
1644651315.1,286046999.4,P
1644651316.0,286046999.4,N
1644651335.8,286047011.9,P
1644651355.7,286047000.8,N
1644651375.5,286047000.9,N
1644651395.4,286046998.4,N
1644651415.2,286047000.5,N
1644651435.0,286047000.3,N
1644651435.9,286047000.3,N
1644651455.8,286046998.3,N
1644651475.6,286046998.4,N
1644651495.4,286046998.9,N
1644651515.3,286046996.6,N
1644651535.1,286046996.5,N
1644651555.9,286046997.5,N
1644651575.7,286046995.5,N
1644651595.5,286046995.8,N
1644651615.4,286046997.5,N
1644651635.2,286046995.0,N
1644651655.0,286046996.9,N
1644651655.9,286046996.9,N
1644651675.8,286046999.5,N
1644651695.6,286046996.7,N
1644651715.5,286046996.5,N
1644651735.3,286046999.6,N
1644651755.1,286046998.5,N
1644651775.9,286046999.6,N
1644651795.7,286046999.5,N
1644651815.5,286046999.5,N
1644651835.4,286046996.5,N
1644651855.2,286046999.6,N
1644651875.1,286046996.7,N
1644651876.0,286046996.7,N
1644651895.8,286046996.9,N
1644651915.6,286046998.7,N
1644651935.5,286046998.5,N
1644651955.3,286046999.1,N
1644651975.1,286046999.1,N
1644651995.9,286046999.6,N
1644652015.7,286046996.6,N
1644652035.6,286046999.2,N
1644652055.4,286046997.0,N
1644652075.2,286046996.5,N
1644652095.1,286046997.1,N
1644652096.0,286046997.1,N
1644652115.8,286046997.8,N
1644652135.6,286046998.0,N
1644652155.5,286046993.5,Y
1644652175.3,286046995.1,P
1644652195.2,286046995.8,P
1644652215.9,286046993.6,P
1644652235.7,286046995.6,N
1644652255.6,286046995.6,Y
1644652275.4,286046999.9,P
1644652295.3,286047002.7,N
1644652315.1,286047001.6,N
1644652316.0,286047001.6,N
1644652335.8,286047003.7,N
1644652355.7,286047004.1,N
1644652375.5,286047004.3,N
1644652395.4,286047003.6,N
1644652415.2,286047001.3,N
1644652435.0,286047001.4,N
1644652435.9,286047001.4,N
1644652455.8,286047004.3,N
1644652475.6,286047003.1,N
1644652495.4,286047001.3,N
1644652515.3,286047001.3,N
1644652535.1,286047001.8,N
1644652555.9,286047001.7,N
1644652575.7,286047001.4,N
1644652595.5,286047001.9,N
1644652615.4,286047002.5,N
1644652635.2,286047002.6,N
1644652655.1,286047002.6,N
1644652656.0,286047002.6,N
1644652675.8,286047004.3,N
1644652695.6,286047004.3,N
1644652715.5,286047003.7,N
1644652735.3,286047004.1,N
1644652755.1,286047001.7,N
1644652775.9,286047001.7,N
1644652795.7,286047001.4,N
